www.srh.weather.gov   
NOAA logo - Click to go to the NOAA homepage   NWS logo
Other Public Products
Enter Your "City, ST" or zip code   
Current Version              Previous Version:    01  02  03  04  05  06  07  08  09  10  11  12  13  14  15  16  17  18  19  20  21  22  23  24  25  26  27  28  29  30  
   31  32  33  34  35  36  37  38  39  40  41  42  43  44  45  46  47  48  49  50  51  52  53  54  55  56  57  58  59  60  
[Printable]
287
FPUS83 KFGF 311410
OPUFGF
PRAIRIE TO PINES WEATHER ROUNDUP
NATIONAL WEATHER SERVICE EASTERN NORTH DAKOTA/GRAND FORKS ND
900 AM CDT FRI OCT 31 2014

 **SATELLITE DATA USED TO AUGMENT SKY COVER AT AUTOMATED STATIONS**
 *****  WEATHER ACROSS EASTERN NORTH DAKOTA  *****

CITY           SKY/WX    TMP DP  RH WIND       PRES   REMARKS
GRAND FORKS    PTCLDY    15  12  88 CALM      30.62S
GRAND FORKS AF PTCLDY    14  12  91 CALM      30.62S
GRAND CITY NWS   N/A     14 N/A N/A MISG        N/A
BUXTON         NOT AVBL
DEVILS LAKE    PTCLDY    23  16  74 S9        30.52F WCI  13
FARGO          FAIR      17  12  80 W5        30.63R WCI  10
WAHPETON ARPT  MOSUNNY   14  12  92 NW6       30.63R WCI   5
$$

 *****  WEATHER ACROSS CENTRAL AND WESTERN NORTH DAKOTA  *****

CITY           SKY/WX    TMP DP  RH WIND       PRES   REMARKS
JAMESTOWN      PTCLDY    14  12  92 E7        30.56F WCI   4
BISMARCK       PTCLDY    17  15  92 SE7       30.53S WCI   8
MINOT          CLEAR     21  16  81 SE13      30.44F WCI   9
MINOT AFB      CLEAR     21  18  91 SE16      30.44F WCI   7
GARRISON         N/A     25  22  88 SE10G22   30.44F WCI  15
WILLISTON      CLOUDY    30  25  81 S12       30.28F WCI  20
DICKINSON      CLOUDY    28  25  88 S24       30.31F WCI  14
HETTINGER      CLOUDY    26  23  88 SE17G28   30.37F WCI  13
$$

 *****  OTHER OBSERVATIONS NORTHEAST NORTH DAKOTA  *****

CITY           SKY/WX    TMP DP  RH WIND       PRES   REMARKS
WALHALLA         N/A     14  14 100 SW6       30.58F WCI   5
LANGDON        FLURRIES  10   7  85 SE9       30.53F WCI  -2
CAVALIER       FAIR      16  14  93 CALM      30.60F
GRAFTON        FAIR      12  10  92 CALM      30.61F
CANDO          FAIR      14  10  85 SE7       30.54S WCI   4
FORT TOTTEN    NOT AVBL
ROLLA          FAIR      16  16 100 S10       30.50F WCI   3
RUGBY          FAIR      19  16  86 S9        30.52S WCI   9
 ***** THE ABOVE OBSERVATIONS ARE NON NWS ARE NOT QUALITY
        CONTROLLED AND MAY MIS-REPORT RAIN FOR SNOW...
$$

 *****  OTHER OBSERVATIONS SOUTHEAST NORTH DAKOTA *****

CITY           SKY/WX    TMP DP  RH WIND       PRES   REMARKS
COOPERSTOWN    NOT AVBL
VALLEY CITY    FAIR      14  14 100 CALM      30.60R
OAKES            N/A     16  16 100 CALM      30.60R
GWINNER        SUNNY     19  16  86 N6        30.60F WCI  11
SHEYENNE NWR     N/A     12   8  83 CALM      29.95S
BUFFALO        NOT AVBL
WYNDMERE         N/A     16  14  93 N3          N/A
 ***** THE ABOVE OBSERVATIONS ARE NON NWS ARE NOT QUALITY
       CONTROLLED AND MAY MIS-REPORT RAIN FOR SNOW...
$$

  *****  WEATHER ACROSS NORTHERN MINNESOTA  *****

CITY           SKY/WX    TMP DP  RH WIND       PRES   REMARKS
FLAG ISLAND    CLEAR     27  23  86 W8        30.58R WCI  18
WARROAD        CLOUDY    21  18  86 W3        30.60R
ROSEAU         CLEAR     19  16  86 CALM      30.60S
HALLOCK        CLEAR     14  10  85 CALM      30.61R
THF RVR FALLS  CLEAR     19  18  93 CALM      30.61R
HALSTAD          N/A     17  14  90 CALM        N/A
FOSSTON        CLEAR     16  12  86 CALM      30.60S
BAUDETTE       CLEAR     21  18  88 SW3       30.58R
WASKISH        CLEAR     19  18  93 CALM      30.58R
CROOKSTON      PTCLDY    14  10  85 CALM      30.63S
$$
  *****  WEATHER ACROSS CENTRAL AND WEST MINNESOTA  *****

CITY           SKY/WX    TMP DP  RH WIND       PRES   REMARKS
BEMIDJI        CLEAR     17  14  89 W3        30.57R
PARK RAPIDS    CLEAR     17  15  92 W3        30.57R
WADENA         CLEAR     19  18  93 NW6       30.58R WCI  11
DETROIT LAKES  CLEAR     21  21 100 CALM      30.59S
MOORHEAD       PTCLDY    16  16 100 CALM      30.63R
FERGUS FALLS   PTCLDY    19  16  86 CALM      30.63R
ELBOW LAKE     FAIR      19  18  95 N3        30.59R
MORRIS MN      NOT AVBL
STAPLES        CLEAR     19  18  93 NW6       30.57R WCI  11
WHEATON        PTCLDY    18  16  93 NW5       30.64R WCI  11
$$
  *****  WEATHER ELSEWHERE ACROSS MINNESOTA  *****

CITY           SKY/WX    TMP DP  RH WIND       PRES   REMARKS
DULUTH         PTCLDY    27  17  66 N12       30.52R WCI  17
INTRNTL FALLS  CLEAR     22  18  85 NW6       30.56S WCI  14
ELY            CLOUDY    25  19  80 N3        30.53R
CLOQUET        FAIR      27  18  69 N12       30.53R WCI  16
BRAINERD       CLEAR     25  18  74 NE9       30.55R WCI  15
HIBBING        CLEAR     24  17  74 NW6       30.55R WCI  17
ALEXANDRIA     CLEAR     25  18  74 N6        30.58R WCI  18
SAINT CLOUD    CLEAR     27  17  66 N5        30.56R WCI  22
MINNEAPOLIS    SUNNY     28  16  60 N13G21    30.54R WCI  17
$$

  *****  WEATHER ACROSS SOUTH DAKOTA  *****

CITY           SKY/WX    TMP DP  RH WIND       PRES   REMARKS
SIOUX FALLS    PTCLDY    23  18  81 N7        30.58R WCI  15
BROOKINGS      NOT AVBL
WATERTOWN      PTCLDY    17  14  88 N3        30.56R
HURON          PTCLDY    15  10  80 CALM      30.59S
SISSETON         N/A     20  16  84 CALM      30.61R
ABERDEEN       PTCLDY    14   9  80 NE3       30.60S
MITCHELL       PTCLDY    17  15  92 NW5       30.60S WCI  10
PIERRE         FOG       17  15  92 E5        30.54F VSB<1/4 WCI  10
MOBRIDGE       MOCLDY    23  18  81 SE10      30.51F WCI  12
RAPID CITY     CLOUDY    30  29  96 S21       30.37F FOG     WCI  17
$$

  *****  SOME WEATHER IN NEARBY STATES *****

CITY           SKY/WX    TMP DP  RH WIND       PRES   REMARKS
GLASGOW MT     PTCLDY    32  28  85 SE23      30.07F WCI  19
GREAT FALLS MT MOCLDY    56  30  37 S21G28    29.82F
CHEYENNE WY    CLEAR     29  25  85 S9        30.32F WCI  20
SCOTTSBLUFF NE PTCLDY    29  28  96 E14       30.40R WCI  18
OMAHA NE       SUNNY     29  21  72 N15       30.57R WCI  18
DES MOINES IA  SUNNY     31  17  56 N16G24    30.49R WCI  20
DAVENPORT IA   SUNNY     33  21  61 N21G28    30.30R WCI  21
CHICAGO IL     PTSUNNY   37  31  78 N20G30    30.11R
EAU CLAIRE WI  SUNNY     30  19  63 N10       30.46R WCI  21
LA CROSSE WI   PTSUNNY   33  21  61 N17G25    30.42R WCI  22
$$

  *****  SOME NATIONAL WEATHER *****

CITY           SKY/WX    TMP DP  RH WIND       PRES   REMARKS
LA GUARDIA NY  CLOUDY    48  32  53 NE9G16    30.01F
RALEIGH NC     MOSUNNY   50  41  71 NE5       29.96S
ATLANTA GA     MOSUNNY   51  42  71 NW12      29.95R
NEW ORLEANS LA MOSUNNY   63  55  75 NW7       30.07R
OKLAHOMA CITY  PTSUNNY   47  38  71 N15       30.40R
ALBUQUERQUE NM PTCLDY    52  27  38 E14       30.36R
SALT LAKE CITY MOCLDY    57  23  26 SE18      29.99F
LOS ANGELES CA MOCLDY    65  60  85 E5        29.95S
BOISE ID       MOCLDY    48  36  63 CALM      29.79R
SEATTLE WA     LGT RAIN  50  49  96 W3        29.70S FOG
$$

*** WEATHER ACROSS MANITOBA...SASKATCHEWAN AND ONTARIO ***
                ***ONTARIO***

CITY           SKY/WX    TMP DP  RH WIND       PRES   REMARKS
GERALDTON      FLURRIES  25  21  86 N9        30.43R WCI  15
THUNDER BAY    MOSUNNY   30  19  64 NW10      30.51R WCI  21
SIOUX LOOKOUT  MOCLDY    23  21  93 NW7       30.54S WCI  15
TORONTO        LGT RAIN  43  41  93 SE6       29.95F
BIG TROUT LK   CLOUDY    19  18  93 NW7       30.45F WCI  10
PICKLE LAKE    FLURRIES  23  18  80 NW8G18    30.48S WCI  14
DRYDEN         CLOUDY    23  21  93 N5        30.54S WCI  17
KENORA         PTCLDY    23  19  86 NW2       30.56S
$$
                *** MANITOBA***

CITY           SKY/WX    TMP DP  RH WIND       PRES   REMARKS
BRANDON        PTCLDY    14  10  85 SE6       30.50F WCI   5
DAUPHIN        CLEAR     18  16  93 CALM      30.45F
ISLAND LAKE    MOCLDY    23  19  86 SW8       30.47S WCI  14
PILOT MOUND      N/A     14  10  85 S7          N/A  WCI   4
THE PAS        CLOUDY    23  21  93 SE15      30.29F WCI  10
THOMPSON       PTCLDY    16  14  93 S7        30.32F WCI   6
WINNIPEG       MOCLDY    18  14  86 S7        30.59F WCI   8
LYNN LAKE      CLEAR     21  19  93 S7        30.14F WCI  13
CHURCHILL      MOCLDY    25  21  86 SW9       30.19F WCI  15
GILLAM         MOCLDY    16  14  93 SW7       30.34F WCI   6
$$
                ***SASKATCHEWAN***

CITY           SKY/WX    TMP DP  RH WIND       PRES   REMARKS
ESTEVAN        CLOUDY    19  18  93 E15       30.30F WCI   5
KINDERSLEY     MOCLDY    36  32  87 S21G29    29.81F
LLOYDMINSTER   MOCLDY    32  30  93 SE18      29.76F WCI  20
PRINCE ALBERT  MOCLDY    28  25  86 SE8       30.07F WCI  20
REGINA         CLOUDY    25  23  93 SE24G33   30.18F WCI   9



National Weather Service
Disclaimer
Last Modified: August 31, 2005
Privacy Policy